ギャラッド彗星

186P/Garradd (2019)

English version
Home page
Updated on June 15, 2021

---------------------------------------------------------------------

・ プロフィール

・ 写真集

・ 軌道要素

Epoch 2019 Apr. 27.0 TT = JDT 2458600.5                                         
T 2019 May 4.96054 TT                                   Rudenko                 
q   4.3894684            (2000.0)            P               Q                  
n   0.08790507     Peri.  283.79916     -0.26416324     +0.92915092             
a   5.0094891      Node   327.06896     -0.59295447     -0.36795906             
e   0.1237692      Incl.   28.40960     -0.76067259     -0.03584269             
P  11.2                                                                         
From 387 observations 1975 May 31-2020 Oct. 11, mean residual 1".4.             

・ 光度変化

        m1 = -4.5 + 5 logΔ + 30 log r

---------------------------------------------------------------------

軌道要素はM.P.E.C. 2020-W26に掲載されたものです。
光度グラフはComet for Windowsで作成したものです。

---------------------------------------------------------------------

Copyright(C) Seiichi Yoshida (comet@aerith.net). All rights reserved.